Theta_e
353 360 366 365 364 363 361 361 359 358 359 360 360 360 361 362 362 363 363 364 364 365 363 360 358 358 360 358 359 363 362 358 356 351 352 352 350 349 348 346 344 339 342
351 357 365 366 364 363 362 361 360 359 360 360 359 359 360 362 362 362 363 364 365 363 360 357 356 356 357 357 359 361 362 361 357 354 350 349 350 349 348 344 343 341 342
351 357 362 365 365 364 363 362 360 360 360 360 360 359 360 361 362 362 362 362 364 361 361 359 355 355 356 355 357 360 361 362 359 356 351 342 343 346 350 345 344 343 341
350 356 360 365 365 364 363 362 360 360 360 360 359 359 360 360 362 361 362 362 362 359 359 358 355 354 355 355 355 358 359 360 360 357 348 344 342 347 347 347 345 343 341
346 355 361 364 364 365 364 362 360 360 360 359 358 359 359 360 361 362 362 363 361 359 356 355 354 355 354 355 355 356 357 359 359 359 353 349 342 346 348 347 346 344 342
353 356 363 363 364 364 364 362 360 360 360 360 358 359 360 360 360 360 361 361 361 360 358 356 356 354 354 354 353 354 355 356 356 354 355 356 350 351 349 348 347 345 341
353 356 360 363 364 364 363 363 362 360 359 360 360 359 359 360 360 360 360 360 360 360 359 357 358 355 353 353 353 353 354 354 345 342 344 347 354 352 352 349 348 346 343
353 354 356 362 363 363 363 363 361 360 359 360 361 360 360 360 360 360 360 360 361 361 360 360 358 355 353 352 352 352 352 351 343 339 342 342 350 353 355 353 351 345 343
347 348 351 355 359 361 362 362 361 360 359 359 359 359 359 360 360 360 360 360 360 360 360 360 359 357 354 352 351 350 350 349 339 338 339 338 351 355 356 354 352 346 344
339 344 342 346 349 352 354 361 361 360 360 359 359 359 359 360 360 360 358 358 360 360 359 360 359 357 355 353 350 350 350 349 338 335 338 338 351 356 357 356 352 349 345
331 337 333 334 337 341 348 355 360 360 360 360 360 360 357 354 354 356 358 358 359 360 360 359 358 357 356 354 352 350 350 338 335 334 332 342 350 357 358 356 352 350 347
325 326 326 329 329 331 346 344 352 353 353 352 353 352 353 351 350 353 355 359 359 359 359 358 358 357 356 348 345 351 342 336 333 331 329 343 348 357 360 356 352 351 349
323 326 326 327 329 330 333 338 342 345 344 345 347 347 347 349 346 348 347 351 353 356 352 354 353 353 349 347 343 337 336 333 333 331 332 343 347 356 360 357 354 352 350
322 323 325 326 325 328 331 331 332 335 339 335 342 344 339 342 343 341 341 338 341 347 348 349 349 349 348 347 344 339 334 332 332 331 328 341 345 356 360 358 356 353 351
322 322 323 325 325 328 328 329 329 329 330 335 343 344 344 339 339 338 340 341 341 342 343 345 346 346 345 345 344 341 338 334 331 331 328 341 346 354 359 361 358 355 353
321 321 323 324 325 327 326 326 326 327 329 330 333 342 342 338 335 331 331 330 332 341 342 343 344 343 343 344 342 341 338 337 334 331 331 336 355 355 358 360 359 356 354
320 321 323 325 325 326 324 325 326 327 329 328 330 330 335 334 333 334 329 328 328 341 343 342 344 344 341 342 341 342 340 338 336 334 332 338 351 355 356 359 359 357 355
320 319 322 326 323 325 324 324 325 326 326 327 327 329 331 333 335 337 336 331 333 337 346 342 341 341 341 340 340 341 340 339 338 336 334 338 347 350 355 357 358 357 356
319 318 320 322 321 325 324 324 324 324 323 324 326 326 328 330 331 333 338 342 341 338 342 344 341 331 323 325 336 338 338 337 337 338 335 332 340 346 347 353 355 355 355
319 318 319 320 320 324 322 322 323 322 324 324 323 322 327 327 330 327 330 330 332 338 343 342 340 336 333 335 339 339 335 335 336 335 336 335 332 338 343 345 351 353 353
318 317 318 317 318 321 319 319 319 319 321 319 321 322 324 325 324 324 325 327 329 331 334 339 337 335 336 338 330 334 331 333 333 335 337 335 334 332 338 343 345 350 351
315 315 316 317 318 319 319 320 321 320 319 319 319 321 322 322 323 323 322 322 323 327 330 332 335 334 331 333 332 322 326 327 329 331 332 335 334 336 336 341 344 347 348
313 314 316 318 317 319 320 320 319 317 316 316 317 317 319 322 323 322 321 319 321 324 324 328 330 329 331 331 330 328 319 319 320 324 327 329 330 331 336 342 343 345 337
313 314 316 316 317 319 319 317 315 313 311 315 315 317 318 320 321 322 321 319 320 322 322 325 330 331 328 329 329 332 330 324 319 320 325 330 332 331 331 338 341 336 335
311 309 315 314 316 315 317 318 313 311 313 315 315 314 315 316 318 320 319 319 317 321 320 322 322 325 329 328 327 328 324 326 329 325 322 325 326 327 326 325 327 330 332
307 311 315 313 314 314 314 313 312 310 310 309 309 308 310 311 313 315 316 316 316 315 316 317 318 321 323 328 329 329 328 323 323 324 324 325 322 323 326 329 332 330 327
Wind_Speed
3 2 4 4 8 8 10 11 13 14 13 13 14 14 13 14 14 13 13 13 12 12 12 11 10 9 9 11 11 11 11 12 12 13 12 12 12 12 12 12 12 9 11
4 4 4 5 7 8 8 8 10 13 13 13 13 12 11 12 12 11 12 12 11 11 11 10 9 9 9 9 10 9 10 11 11 11 11 10 10 9 13 11 11 10 11
9 6 5 6 6 7 6 7 8 10 11 12 14 13 11 10 10 9 9 9 9 10 9 8 7 7 8 8 8 8 8 10 10 10 10 4 3 7 13 11 12 13 11
8 7 6 7 7 8 7 7 6 7 9 10 11 11 10 10 10 9 7 6 7 7 7 7 6 5 6 6 5 5 5 6 8 9 5 5 6 10 11 11 12 13 13
5 8 6 10 9 9 9 8 7 7 8 9 9 9 10 8 8 7 7 6 6 5 5 5 5 5 5 5 5 4 4 5 7 8 5 5 5 9 11 13 12 13 14
7 9 11 10 9 9 9 9 8 7 8 8 8 8 8 8 7 6 6 5 4 5 6 6 6 5 5 6 6 6 7 6 7 5 5 6 6 11 14 12 12 13 13
6 6 8 12 12 11 12 11 11 10 9 9 9 9 8 7 7 7 7 7 7 8 8 7 7 7 7 7 8 8 8 8 5 5 6 6 6 16 17 17 14 14 14
3 4 4 6 5 6 8 10 12 13 14 13 11 10 10 10 9 9 9 9 9 10 9 9 8 8 8 8 9 9 10 10 7 5 6 5 8 18 20 18 17 17 16
6 7 6 6 4 2 1 1 2 2 4 6 7 9 10 11 12 12 12 12 12 11 11 10 10 10 10 10 10 11 11 12 7 4 7 4 10 21 22 20 19 19 18
7 8 3 4 2 1 1 2 4 5 6 7 9 10 11 11 12 13 12 12 13 13 13 12 12 11 11 12 12 12 12 14 7 5 6 6 10 20 22 21 21 20 20
15 8 8 8 7 5 5 5 6 6 7 8 7 8 8 4 6 9 11 14 15 16 16 15 15 14 13 14 14 14 14 4 6 6 4 12 13 19 23 22 21 21 21
10 6 6 6 7 7 6 1 3 5 3 4 5 6 5 7 6 9 12 16 17 17 17 17 16 15 13 6 6 13 6 7 6 8 4 14 16 21 24 24 23 22 21
5 7 8 7 7 8 8 4 1 2 3 3 6 6 6 5 5 5 5 5 7 13 7 10 10 8 9 6 6 5 7 6 6 7 9 15 17 21 25 24 24 23 23
4 4 6 7 7 7 5 6 5 4 4 4 5 7 4 4 5 5 4 5 5 5 7 8 6 8 9 9 9 9 9 8 6 6 7 16 17 20 25 26 25 24 23
7 3 4 6 5 3 3 0 3 5 4 5 5 6 4 4 6 4 5 4 5 5 8 8 9 8 8 9 9 10 11 10 10 6 5 17 17 20 24 27 26 25 25
6 5 3 3 6 6 5 3 1 3 5 6 6 6 6 5 6 4 7 8 6 6 7 7 8 7 8 7 9 10 12 10 10 10 7 8 14 21 25 26 25 25 26
4 3 6 7 9 9 8 7 4 3 5 5 6 8 8 6 7 9 5 6 9 5 7 5 5 5 5 4 8 10 10 12 10 11 9 7 6 20 24 25 25 26 26
6 5 3 2 3 4 5 5 5 4 3 4 4 5 7 7 7 8 7 5 8 8 6 6 5 6 7 6 8 9 8 9 12 11 9 7 7 8 16 22 24 25 26
7 6 4 4 2 2 1 3 4 5 4 3 3 4 7 8 11 7 7 8 8 8 11 6 6 5 5 5 7 7 7 7 8 9 10 7 10 9 8 19 26 26 27
7 6 5 4 3 4 1 1 2 3 4 3 4 5 5 5 5 6 7 8 10 7 8 7 8 5 5 5 6 6 5 5 4 5 8 7 6 9 9 10 12 15 28
6 5 6 4 5 3 1 1 3 3 3 3 4 6 6 5 5 5 4 6 9 9 8 8 4 6 4 3 1 6 4 5 6 7 6 5 7 7 7 9 8 9 11
5 5 5 6 5 4 2 3 3 3 4 4 4 6 6 6 6 7 6 8 8 7 11 9 6 6 3 4 7 1 7 7 4 5 4 6 8 6 7 10 9 11 8
2 6 7 7 5 4 4 1 2 2 2 2 4 4 5 6 7 7 7 6 8 6 8 8 7 7 7 3 7 5 1 6 2 2 5 5 5 1 3 6 8 8 5
7 5 5 5 4 3 1 2 3 3 3 4 3 3 5 7 7 8 8 6 6 6 7 7 7 6 3 7 2 5 7 4 3 8 2 3 1 2 2 2 3 4 4
5 3 5 3 2 3 4 4 3 4 3 3 4 6 6 6 7 7 7 7 8 3 5 7 10 10 5 6 4 4 4 4 6 8 12 9 2 3 1 2 3 3 3
4 4 4 1 2 4 5 6 5 5 6 5 5 6 7 7 5 6 8 7 6 6 6 7 9 10 9 8 7 5 5 4 4 4 7 9 4 2 3 3 4 4 4
Wind_Direction
234 290 282 200 130 124 125 123 118 114 108 103 102 101 103 104 104 99 98 103 110 117 119 122 125 123 124 127 130 131 134 130 130 132 135 128 125 128 121 121 117 115 111
165 233 220 204 137 134 130 125 123 122 120 114 109 103 99 103 107 107 112 115 120 127 126 123 133 136 134 137 138 139 144 139 137 142 141 135 135 136 129 132 128 125 117
163 172 184 177 146 135 133 130 131 128 126 125 125 122 117 112 110 111 115 120 126 132 134 138 144 145 144 150 150 150 155 147 150 153 145 128 126 135 153 147 144 135 127
112 156 161 159 144 144 143 135 135 127 128 129 128 126 124 125 127 125 121 126 134 142 147 156 167 162 157 164 169 165 161 157 161 164 155 170 175 171 161 162 159 149 139
151 148 171 150 150 147 149 149 149 140 135 136 137 135 135 138 138 140 148 152 153 158 167 182 188 183 184 192 199 204 204 195 186 195 200 195 205 180 181 178 176 166 151
160 157 159 150 144 145 150 157 150 147 140 138 146 147 151 153 156 162 165 175 187 198 201 203 206 208 208 219 228 232 234 223 218 223 235 225 215 184 189 195 192 181 165
162 162 160 157 159 162 164 162 158 160 158 157 158 163 164 165 170 181 189 194 207 216 217 220 217 220 222 227 236 243 249 251 232 222 246 251 223 190 190 195 201 202 185
44 36 121 152 144 154 166 171 173 173 171 171 170 175 175 178 187 195 204 207 212 218 218 219 225 229 232 235 236 238 245 252 256 225 233 242 223 194 193 193 198 200 196
43 54 34 18 37 45 354 122 159 195 190 181 181 188 188 190 195 201 208 212 216 220 222 223 225 226 229 236 242 245 247 249 243 224 249 236 230 198 197 197 196 200 203
45 72 21 7 359 313 158 233 219 187 193 193 194 199 198 207 207 212 217 219 220 224 227 227 227 227 229 232 235 241 250 254 254 234 231 243 243 208 200 199 196 199 204
49 61 31 19 358 273 203 206 216 213 205 215 205 214 221 222 218 228 227 222 224 225 225 225 226 226 227 233 235 237 244 236 243 246 226 241 235 213 205 200 199 201 204
47 50 35 7 1 10 53 333 209 236 236 242 228 225 227 222 219 223 224 231 236 235 232 228 230 230 231 233 236 241 235 234 237 251 218 228 235 217 211 202 200 202 204
26 27 25 31 12 16 21 26 334 324 305 273 255 240 239 242 243 236 230 233 223 232 235 242 240 232 229 223 227 226 238 238 238 246 243 234 235 224 212 206 203 204 204
97 22 36 37 29 27 19 8 352 347 313 287 276 262 251 252 251 247 237 241 232 228 223 223 223 227 226 228 231 234 233 234 237 240 235 234 237 223 212 207 205 205 206
128 114 91 129 122 113 88 268 320 320 316 302 283 276 271 257 262 274 267 254 237 229 221 215 221 216 224 227 233 236 244 244 244 240 237 235 238 223 213 208 206 206 208
40 44 36 79 131 142 152 158 237 316 319 325 319 296 277 251 259 256 259 266 263 236 237 224 216 218 229 222 232 235 240 242 245 241 241 245 234 210 207 210 207 208 211
139 78 28 15 11 17 9 3 15 355 348 332 331 325 305 291 280 277 254 259 266 259 236 229 213 215 230 215 236 233 231 239 240 240 239 233 217 213 209 209 210 211 213
148 147 159 110 76 26 4 347 343 347 341 325 324 327 328 319 289 288 293 280 282 279 248 220 222 218 222 212 238 248 233 237 241 237 227 214 206 207 218 218 214 214 215
169 176 187 185 155 161 324 324 332 334 338 322 323 326 334 338 333 329 307 296 287 267 271 236 232 210 201 215 228 244 251 239 239 247 249 215 206 203 202 216 217 216 217
185 199 197 200 196 198 211 295 303 329 325 323 318 328 328 343 2 338 324 317 314 297 268 251 240 231 242 234 238 252 224 229 231 239 243 251 213 210 206 211 215 220 221
206 206 207 191 219 184 183 248 266 261 274 296 308 313 313 316 332 325 317 320 323 322 301 289 265 229 251 241 325 264 288 251 248 239 229 231 246 225 202 210 209 216 227
213 222 226 221 211 200 184 219 218 216 251 251 272 293 298 303 312 319 319 321 312 310 317 309 301 283 242 195 244 248 277 291 266 246 237 239 240 238 199 219 209 215 215
242 235 217 202 202 214 210 267 297 310 309 299 264 260 270 286 299 303 300 295 303 304 304 301 292 263 272 252 216 200 268 236 343 293 254 249 266 171 199 203 206 198 183
230 229 198 200 201 228 226 231 229 224 253 247 266 276 287 284 282 287 291 279 280 293 300 308 303 277 231 270 254 221 231 180 249 302 307 317 19 175 140 110 194 178 197
262 263 192 198 249 271 248 240 276 290 282 293 303 306 293 279 273 275 279 285 292 278 303 308 322 325 296 263 240 247 226 239 240 233 275 270 330 65 151 192 211 230 234
11 70 124 138 258 312 331 347 2 357 326 325 304 300 294 291 279 275 286 282 281 280 287 292 292 295 295 284 263 237 223 212 212 207 239 266 232 181 195 213 189 191 200